This demonstration page uses our WeatherBlox Daily Observations layout. Learn more.

Left ArrowRight Arrow

39.29038, -76.61219

Hourly Observations for January 29, 2022

Temp ( °F °C ) Dew Point ( °F °C ) Humidity (%) Winds ( mph kmh ) Pressure ( in mb ) Visibility ( mi km ) Precip ( " mm )
12:26 am 00:26 Cloudy with Light Snow 31 -0.6 28 -2.2 89 89 N 9 15 29.89 1012 1 2 0.01 0.25
12:54 am 00:54 Cloudy with Light Snow 31 -0.6 28 -2.2 89 89 N 7 11 29.86 1011 1 2 0.01 0.25
1:25 am 01:25 Cloudy with Light Snow 31 -0.6 28 -2.2 89 89 N 8 13 29.86 1011 2 3 0.01 0.25
1:54 am 01:54 Cloudy with Light Snow 31 -0.6 27 -2.8 85 85 NNW 9 15 29.84 1010 2 3 0.01 0.25
2:10 am 02:10 Cloudy with Light Snow 31 -0.6 27 -2.8 85 85 N 10 17 29.84 1011 2 3 0.00 0.00
2:41 am 02:41 Cloudy with Light Snow 29 -1.7 25 -3.9 85 85 N 9 15 29.83 1010 1 2 0.00 0.00
2:54 am 02:54 Cloudy with Light Snow 29 -1.7 25 -3.9 85 85 N 13 20 29.83 1010 2 3 0.00 0.00
3:54 am 03:54 Cloudy with Light Snow 26 -3.3 21 -6.1 81 81 NNW 13 20 29.83 1010 3 5 0.00 0.00
4:54 am 04:54 Cloudy with Light Snow 24 -4.4 18 -7.8 77 77 NNW 12 19 29.83 1010 3 5 0.00 0.00
5:54 am 05:54 Cloudy with Light Snow 23 -5 16 -8.9 74 74 NNW 12 19 29.82 1010 8 13 0.00 0.00
6:22 am 06:22 Cloudy 22 -5.6 15 -9.4 75 75 NNW 14 22 29.84 1010 9 14 0.00 0.00
6:54 am 06:54 Cloudy 21 -6.1 14 -10 74 74 NNW 12 19 29.83 1010 10 16 0.00 0.00
7:54 am 07:54 Mostly Cloudy 21 -6.1 9 -12.8 59 59 NW 14 22 29.85 1011 10 16 0.00 0.00
8:54 am 08:54 Mostly Cloudy 20 -6.7 6 -14.4 55 55 NW 15 24 29.86 1011 10 16 0.00 0.00
9:54 am 09:54 Mostly Cloudy 22 -5.6 6 -14.4 50 50 NW 14 22 29.88 1012 10 16 0.00 0.00
10:54 am 10:54 Mostly Cloudy 23 -5 6 -14.4 48 48 NW 21 33 29.88 1012 10 16 0.00 0.00
11:54 am 11:54 Partly Cloudy 25 -3.9 6 -14.4 44 44 NW 14 22 29.87 1012 10 16 0.00 0.00
12:54 pm 12:54 Partly Cloudy 25 -3.9 2 -16.7 37 37 NW 20 31 29.85 1011 10 16 0.00 0.00
1:54 pm 13:54 Partly Cloudy 25 -3.9 3 -16.1 39 39 NW 22 35 29.84 1011 10 16 0.00 0.00
2:54 pm 14:54 Mostly Cloudy 26 -3.3 4 -15.6 38 38 NW 20 31 29.84 1010 10 16 0.00 0.00
3:54 pm 15:54 Mostly Cloudy 25 -3.9 0 -17.8 33 33 NW 13 20 29.84 1010 10 16 0.00 0.00
4:54 pm 16:54 Partly Cloudy 24 -4.4 1 -17.2 36 36 WNW 15 24 29.86 1011 10 16 0.00 0.00
5:54 pm 17:54 Mostly Clear 22 -5.6 0 -17.8 38 38 WNW 15 24 29.87 1012 10 16 0.00 0.00
6:54 pm 18:54 Clear 22 -5.6 0 -17.8 38 38 WNW 16 26 29.90 1012 10 16 0.00 0.00
7:54 pm 19:54 Clear 21 -6.1 1 -17.2 41 41 WNW 14 22 29.91 1013 10 16 0.00 0.00
8:54 pm 20:54 Mostly Clear 21 -6.1 1 -17.2 41 41 WNW 15 24 29.93 1013 10 16 0.00 0.00
9:54 pm 21:54 Clear 21 -6.1 1 -17.2 41 41 WNW 13 20 29.96 1014 10 16 0.00 0.00
10:54 pm 22:54 Clear 21 -6.1 2 -16.7 43 43 WNW 10 17 29.98 1015 10 16 0.00 0.00
11:54 pm 23:54 Clear 20 -6.7 2 -16.7 45 45 WNW 14 22 29.99 1016 10 16 0.00 0.00

Powered by AerisWeather